When you browse on this site, cookies collect data to enhance your experience and personalize the content and advertising you see.
Visit our Privacy Policy to learn more. By continuing to use the site, you agree to this use of cookies and data.
  • In Hungary
  • List of Countries
  • For 7 days
  • Water Temperature
  • Satellite Maps
  • Weather Map
  • News
  • Weather Widgets
  • user-avatar
    Login

    Hourly Weather Aci Castello

    Today, 18 December, Tuesday

    Time Temperature Precipitation Wind Pressure Humidity
    00:00 +10°C° 0 mm 6 mps 750 mmHg 74%
    01:00 +10°C° 0 mm 6 mps 750 mmHg 76%
    02:00 +10°C° 0 mm 6 mps 750 mmHg 76%
    03:00 +10°C° 0 mm 5 mps 750 mmHg 76%
    04:00 +10°C° 0 mm 5 mps 750 mmHg 77%
    05:00 +10°C° 0 mm 5 mps 751 mmHg 78%
    06:00 +10°C° 0 mm 5 mps 751 mmHg 79%
    07:00 +10°C° 0 mm 4 mps 752 mmHg 81%
    08:00 +11°C° 0 mm 4 mps 752 mmHg 75%
    09:00 +12°C° 0 mm 5 mps 753 mmHg 70%
    10:00 +13°C° 0 mm 5 mps 753 mmHg 64%
    11:00 +13°C° 0 mm 6 mps 753 mmHg 61%
    12:00 +14°C° 0 mm 6 mps 754 mmHg 57%
    13:00 +14°C° 0 mm 6 mps 754 mmHg 54%
    14:00 +13°C° 0 mm 6 mps 754 mmHg 55%
    15:00 +13°C° 0 mm 5 mps 754 mmHg 55%
    16:00 +12°C° 0 mm 5 mps 754 mmHg 55%
    17:00 +10°C° 0 mm 5 mps 755 mmHg 59%
    18:00 +10°C° 0 mm 4 mps 755 mmHg 63%
    19:00 +8°C° 0 mm 4 mps 755 mmHg 66%
    20:00 +8°C° 0 mm 4 mps 756 mmHg 68%
    21:00 +8°C° 0 mm 3 mps 756 mmHg 70%
    22:00 +8°C° 0 mm 3 mps 756 mmHg 71%
    23:00 +8°C° 0 mm 3 mps 756 mmHg 73%

    Tomorrow, 19 December, Wednesday

    Time Temperature Precipitation Wind Pressure Humidity
    00:00 +8°C° 0 mm 3 mps 756 mmHg 74%
    01:00 +8°C° 0 mm 3 mps 756 mmHg 75%
    02:00 +8°C° 0 mm 3 mps 756 mmHg 75%
    03:00 +8°C° 0 mm 2 mps 756 mmHg 75%
    04:00 +8°C° 0 mm 2 mps 756 mmHg 75%
    05:00 +8°C° 0 mm 2 mps 756 mmHg 75%
    06:00 +8°C° 0 mm 2 mps 756 mmHg 75%
    07:00 +7°C° 0 mm 2 mps 756 mmHg 74%
    08:00 +10°C° 0 mm 1 mps 757 mmHg 66%
    09:00 +12°C° 0 mm 1 mps 757 mmHg 58%
    10:00 +14°C° 0 mm 1 mps 757 mmHg 51%
    11:00 +15°C° 0 mm 1 mps 757 mmHg 48%
    12:00 +15°C° 0 mm 1 mps 757 mmHg 45%
    13:00 +16°C° 0 mm 1 mps 757 mmHg 43%
    14:00 +16°C° 0 mm 1 mps 756 mmHg 47%
    15:00 +15°C° 0 mm 2 mps 756 mmHg 52%
    16:00 +14°C° 0 mm 2 mps 756 mmHg 56%
    17:00 +13°C° 0 mm 1 mps 756 mmHg 60%
    18:00 +12°C° 0 mm 1 mps 756 mmHg 65%
    19:00 +11°C° 0 mm 1 mps 756 mmHg 69%
    20:00 +11°C° 0 mm 1 mps 756 mmHg 70%
    21:00 +9°C° 0 mm 2 mps 756 mmHg 70%
    22:00 +9°C° 0 mm 2 mps 756 mmHg 70%
    23:00 +9°C° 0 mm 2 mps 756 mmHg 69%

    Day after tomorrow, 20 December, Thursday

    Time Temperature Precipitation Wind Pressure Humidity
    00:00 +9°C° 0 mm 2 mps 756 mmHg 68%
    01:00 +9°C° 0 mm 2 mps 756 mmHg 67%
    02:00 +9°C° 0 mm 2 mps 756 mmHg 66%
    03:00 +9°C° 0 mm 2 mps 756 mmHg 66%
    04:00 +9°C° 0 mm 2 mps 756 mmHg 65%
    05:00 +9°C° 0 mm 2 mps 756 mmHg 67%
    06:00 +9°C° 0 mm 3 mps 756 mmHg 70%
    07:00 +9°C° 0 mm 3 mps 756 mmHg 72%
    08:00 +12°C° 0 mm 2 mps 756 mmHg 68%
    09:00 +14°C° 0 mm 2 mps 757 mmHg 64%
    10:00 +16°C° 0 mm 2 mps 757 mmHg 59%
    11:00 +16°C° 0 mm 2 mps 756 mmHg 56%
    12:00 +17°C° 0 mm 2 mps 756 mmHg 53%
    13:00 +18°C° 0 mm 2 mps 755 mmHg 50%
    14:00 +17°C° 0 mm 2 mps 755 mmHg 53%
    15:00 +17°C° 0 mm 2 mps 755 mmHg 56%
    16:00 +16°C° 0 mm 1 mps 755 mmHg 59%
    17:00 +15°C° 0 mm 1 mps 756 mmHg 62%
    18:00 +14°C° 0 mm 1 mps 756 mmHg 65%
    19:00 +13°C° 0 mm 1 mps 756 mmHg 68%
    20:00 +13°C° 0 mm 1 mps 756 mmHg 69%
    21:00 +13°C° 0 mm 2 mps 757 mmHg 70%
    22:00 +12°C° 0 mm 2 mps 757 mmHg 71%
    23:00 +12°C° 0 mm 2 mps 757 mmHg 73%

    21 December, Friday

    Time Temperature Precipitation Wind Pressure Humidity
    00:00 +12°C° 0 mm 2 mps 757 mmHg 76%
    01:00 +12°C° 0 mm 2 mps 757 mmHg 79%
    02:00 +12°C° 0 mm 2 mps 757 mmHg 81%
    03:00 +11°C° 0 mm 3 mps 757 mmHg 82%
    04:00 +11°C° 0 mm 3 mps 757 mmHg 84%
    05:00 +11°C° 0 mm 3 mps 757 mmHg 84%
    06:00 +11°C° 0 mm 3 mps 758 mmHg 84%
    07:00 +11°C° 0 mm 3 mps 758 mmHg 84%
    08:00 +12°C° 0 mm 3 mps 758 mmHg 79%
    09:00 +13°C° 0 mm 3 mps 759 mmHg 73%
    10:00 +14°C° 0 mm 3 mps 759 mmHg 67%
    11:00 +16°C° 0 mm 3 mps 759 mmHg 62%
    12:00 +17°C° 0 mm 3 mps 759 mmHg 58%
    13:00 +17°C° 0 mm 3 mps 759 mmHg 54%
    14:00 +17°C° 0 mm 3 mps 759 mmHg 56%
    15:00 +16°C° 0 mm 3 mps 759 mmHg 59%
    16:00 +16°C° 0 mm 3 mps 759 mmHg 61%
    17:00 +13°C° 0 mm 3 mps 760 mmHg 66%
    18:00 +12°C° 0 mm 3 mps 760 mmHg 70%
    19:00 +11°C° 0 mm 3 mps 760 mmHg 75%
    20:00 +12°C° 0 mm 2 mps 760 mmHg 76%
    21:00 +10°C° 0 mm 2 mps 760 mmHg 76%
    22:00 +10°C° 0 mm 2 mps 761 mmHg 77%
    23:00 +10°C° 0 mm 2 mps 760 mmHg 78%

    22 December, Saturday

    Time Temperature Precipitation Wind Pressure Humidity
    00:00 +10°C° 0 mm 2 mps 760 mmHg 79%
    01:00 +10°C° 0 mm 2 mps 760 mmHg 80%
    02:00 +9°C° 0 mm 2 mps 760 mmHg 82%
    03:00 +9°C° 0 mm 2 mps 760 mmHg 83%
    04:00 +9°C° 0 mm 2 mps 760 mmHg 84%
    05:00 +9°C° 0 mm 2 mps 760 mmHg 84%
    06:00 +9°C° 0 mm 2 mps 760 mmHg 84%
    07:00 +9°C° 0 mm 2 mps 760 mmHg 84%
    08:00 +10°C° 0 mm 2 mps 760 mmHg 76%
    09:00 +13°C° 0 mm 2 mps 760 mmHg 69%
    10:00 +15°C° 0 mm 2 mps 760 mmHg 61%
    11:00 +16°C° 0 mm 2 mps 760 mmHg 57%
    12:00 +16°C° 0 mm 2 mps 760 mmHg 54%
    13:00 +17°C° 0 mm 2 mps 759 mmHg 51%
    14:00 +17°C° 0 mm 2 mps 759 mmHg 54%
    15:00 +16°C° 0 mm 2 mps 759 mmHg 58%
    16:00 +16°C° 0 mm 2 mps 759 mmHg 61%
    17:00 +14°C° 0 mm 2 mps 759 mmHg 65%
    18:00 +13°C° 0 mm 2 mps 759 mmHg 69%
    19:00 +12°C° 0 mm 2 mps 759 mmHg 73%
    20:00 +12°C° 0 mm 2 mps 759 mmHg 71%
    21:00 +12°C° 0 mm 2 mps 759 mmHg 69%
    22:00 +12°C° 0 mm 2 mps 759 mmHg 67%
    23:00 +12°C° 0 mm 2 mps 759 mmHg 65%

    23 December, Sunday

    Time Temperature Precipitation Wind Pressure Humidity
    00:00 +12°C° 0 mm 2 mps 759 mmHg 64%
    01:00 +10°C° 0 mm 2 mps 759 mmHg 62%
    02:00 +10°C° 0 mm 2 mps 758 mmHg 63%
    03:00 +10°C° 0 mm 2 mps 758 mmHg 63%
    04:00 +10°C° 0 mm 2 mps 758 mmHg 63%
    05:00 +10°C° 0 mm 2 mps 758 mmHg 65%
    06:00 +10°C° 0 mm 2 mps 758 mmHg 66%
    07:00 +10°C° 0 mm 2 mps 758 mmHg 67%
    08:00 +13°C° 0 mm 2 mps 759 mmHg 63%
    09:00 +15°C° 0 mm 2 mps 759 mmHg 58%
    10:00 +16°C° 0 mm 2 mps 759 mmHg 54%
    11:00 +17°C° 0 mm 2 mps 759 mmHg 51%
    12:00 +18°C° 0 mm 2 mps 758 mmHg 49%
    13:00 +19°C° 0 mm 2 mps 758 mmHg 47%
    14:00 +19°C° 0 mm 2 mps 758 mmHg 52%
    15:00 +19°C° 0 mm 1 mps 758 mmHg 56%
    16:00 +18°C° 0 mm 1 mps 758 mmHg 61%
    17:00 +16°C° 0 mm 1 mps 758 mmHg 65%
    18:00 +15°C° 0 mm 1 mps 758 mmHg 69%
    19:00 +13°C° 0 mm 1 mps 758 mmHg 73%
    20:00 +13°C° 0 mm 1 mps 758 mmHg 72%
    21:00 +13°C° 0 mm 1 mps 759 mmHg 71%
    22:00 +13°C° 0 mm 1 mps 759 mmHg 70%
    23:00 +13°C° 0 mm 1 mps 759 mmHg 69%
    Show more